This is the latest recevied weather packets stored in our database for station/object AB4KY. If no packets are shown the sender has not sent any weather packets the latest 10 day(s).
| Time | Temp. | Humidity | Pressure | Rain* | Wind** | Luminosity | Snow |
|---|---|---|---|---|---|---|---|
| 1778045847 | 10.56° C | 99% | 1004.7 hPa | 4.32 mm | - | 0 W/m² | - |
| 1778045546 | 10.56° C | 99% | 1004.7 hPa | 6.1 mm | - | 0 W/m² | - |
| 1778045243 | 11.11° C | 99% | 1005 hPa | 1.78 mm | - | 0 W/m² | - |
| 1778044942 | 11.11° C | 99% | 1005 hPa | 0.51 mm | - | 0 W/m² | - |
| 1778044639 | 11.11° C | 99% | 1004.7 hPa | 0.51 mm | - | 0 W/m² | - |
| 1778044335 | 11.11° C | 99% | 1004.9 hPa | 0.51 mm | - | 0 W/m² | - |
| 1778044033 | 11.11° C | 99% | 1004.5 hPa | 1.27 mm | - | 0 W/m² | - |
| 1778043730 | 11.67° C | 99% | 1004.7 hPa | 1.27 mm | - | 0 W/m² | - |
| 1778043427 | 11.67° C | 99% | 1004.5 hPa | 1.27 mm | - | 0 W/m² | - |
| 1778043123 | 12.22° C | 99% | 1004.7 hPa | 1.78 mm | - | 0 W/m² | - |
| 1778042821 | 12.22° C | 99% | 1004.8 hPa | 2.29 mm | - | 0 W/m² | - |
| 1778042517 | 13.33° C | 99% | 1004.7 hPa | 1.78 mm | - | 0 W/m² | - |
| 1778042215 | 14.44° C | 99% | 1004.5 hPa | 2.29 mm | - | 0 W/m² | - |
| 1778041913 | 14.44° C | 99% | 1004.3 hPa | 8.38 mm | - | 0 W/m² | - |
| 1778041612 | 14.44° C | 99% | 1004.4 hPa | 7.87 mm | - | 0 W/m² | - |
| 1778041310 | 14.44° C | 99% | 1004.7 hPa | 3.05 mm | - | 0 W/m² | - |
| 1778041008 | 14.44° C | 99% | 1004.3 hPa | 6.1 mm | - | 0 W/m² | - |
| 1778040704 | 14.44° C | 99% | 1004.2 hPa | 11.94 mm | - | 0 W/m² | - |
| 1778040408 | 15° C | 99% | 1004.4 hPa | 19.3 mm | - | 0 W/m² | - |
| 1778040098 | 15° C | 99% | 1004.5 hPa | 15.49 mm | - | 0 W/m² | - |
| 1778039796 | 15° C | 99% | 1004.4 hPa | 6.1 mm | - | 0 W/m² | - |
| 1778039492 | 15° C | 99% | 1004.4 hPa | 3.05 mm | - | 0 W/m² | - |
| 1778039189 | 15° C | 99% | 1004.4 hPa | 1.78 mm | - | 0 W/m² | - |
| 1778038886 | 15° C | 99% | 1004.3 hPa | 1.27 mm | - | 0 W/m² | - |
| 1778038583 | 15° C | 99% | 1004.4 hPa | 3.05 mm | - | 0 W/m² | - |
* Rain latest hour (hover to see other rain measurements)
** Current wind speed in m/s (hover to see current wind gust speed)